Location: ?????????
(44.2517°N, 135.2292°E)
Time: 03:03:15
(UTC+00:00)

Cosmos 44 Rocket - Pass Details

Date: 19 May 2025
Orbit: 651 x 728 km, 65.1° (Epoch: 15 June)

Event Time Altitude Azimuth Distance (km) Brightness Sun altitude
Rises 16:25:47 0° 327° (NNW) 3,025 7.1 -22.6°
Reaches altitude 10° 16:28:06 10° 331° (NNW) 2,119 6.3 -22.4°
Maximum altitude 16:32:53 63° 53° (NE) 772 3.7 -22.1°
Enters shadow 16:37:09 13° 133° (SE) 1,927 5.4 -21.8°
